De Soto, IL

7:44 PM CST on February 23, 2017 (GMT -0600)
Southern Illinois

Weather History for KMDH - January, 2014

Change the Weather History Date:

Tuesday, January 14, 2014

  Actual Average Record
Temperature  
Mean Temperature 38 °F -  
Max Temperature 48 °F 39 °F 67 °F (1932)
Min Temperature 28 °F 17 °F -8 °F (1917)
Degree Days  
Heating Degree Days 27    
Moisture  
Dew Point 26 °F    
Average Humidity 64    
Maximum Humidity 85    
Minimum Humidity 46    
Precipitation  
Precipitation 0.00 in - - ()
Sea Level Pressure  
Sea Level Pressure 29.93 in    
Wind  
Wind Speed 6 mph (West)    
Max Wind Speed 18 mph    
Max Gust Speed 24 mph    
Visibility 10 miles    
Events Rain    
Averages and records for this station are not official NWS values.
T = Trace of Precipitation, MM = Missing Value Source: NWS Daily Summary

Daily Weather History Graph

Daily Weather History Graph

Search for Another Location

Airport or City:

Trip Planner

Search our weather history database for the weather conditions in past years. The results will help you decide how hot, cold, wet, or windy it might be!

Date:

Astronomy

Jan. 14, 2014 Rise Set
Actual Time 7:11 AM CST 5:01 PM CST
Civil Twilight 6:42 AM CST 5:29 PM CST
Nautical Twilight 6:10 AM CST 6:02 PM CST
Astronomical Twilight 5:38 AM CST 6:33 PM CST
Moon 4:05 PM CST (1/14) 5:46 AM CST (1/14)
Length of Visible Light 10h 46m
Length of Day
9h 49m
Waxing Gibbous, 98% of the Moon is Illuminated
Jan 14
Waxing Gibbous
Jan 15
Full
Jan 23
Last Quarter
Jan 30
New
Feb 6
First Quarter

Hourly Weather History & Observations

Time (CST) Temp. Windchill Dew Point Humidity Pressure Visibility Wind Dir Wind Speed Gust Speed Precip Events Conditions
12:52 AM 32.0 °F - 26.1 °F 79% 29.88 in 10.0 mi Calm Calm - N/A   Clear
1:52 AM 30.9 °F - 27.0 °F 85% 29.89 in 10.0 mi Calm Calm - N/A   Clear
2:52 AM 28.0 °F - 24.1 °F 85% 29.89 in 10.0 mi Calm Calm - N/A   Clear
3:52 AM 28.0 °F 22.8 °F 24.1 °F 85% 29.88 in 10.0 mi SSE 4.6 mph - N/A   Clear
4:52 AM 28.0 °F 22.8 °F 24.1 °F 85% 29.88 in 10.0 mi SSE 4.6 mph - N/A   Clear
5:52 AM 30.0 °F 23.2 °F 26.1 °F 85% 29.85 in 10.0 mi SSE 6.9 mph - N/A   Clear
6:52 AM 30.9 °F 25.2 °F 25.0 °F 79% 29.85 in 10.0 mi South 5.8 mph - N/A   Clear
7:52 AM 35.1 °F 27.4 °F 27.0 °F 72% 29.85 in 10.0 mi SSW 10.4 mph - N/A   Partly Cloudy
8:52 AM 42.1 °F 34.9 °F 30.0 °F 62% 29.84 in 10.0 mi SSW 13.8 mph - N/A   Clear
9:52 AM 46.0 °F 39.9 °F 28.9 °F 51% 29.86 in 10.0 mi SW 13.8 mph - N/A   Overcast
10:52 AM 48.0 °F - 28.0 °F 46% 29.87 in 10.0 mi WSW 18.4 mph 24.2 mph N/A   Overcast
11:52 AM 46.9 °F - 28.9 °F 50% 29.85 in 10.0 mi West 10.4 mph - 0.00 in   Overcast
12:52 PM 46.9 °F - 32.0 °F 56% 29.86 in 10.0 mi NW 12.7 mph - 0.00 in Rain Light Rain
1:52 PM 46.0 °F 41.4 °F 34.0 °F 63% 29.90 in 10.0 mi NW 9.2 mph - 0.00 in   Overcast
2:52 PM 46.0 °F 43.9 °F 34.0 °F 63% 29.91 in 10.0 mi WNW 4.6 mph - N/A   Mostly Cloudy
3:52 PM 46.9 °F - 32.0 °F 56% 29.95 in 10.0 mi NW 8.1 mph - N/A   Mostly Cloudy
4:52 PM 45.0 °F 41.8 °F 28.9 °F 53% 29.98 in 10.0 mi NW 5.8 mph - N/A   Scattered Clouds
5:52 PM 41.0 °F 35.8 °F 25.0 °F 53% 30.00 in 10.0 mi NW 8.1 mph - N/A   Clear
6:52 PM 39.9 °F 34.5 °F 23.0 °F 51% 30.04 in 10.0 mi NW 8.1 mph - N/A   Clear
7:52 PM 37.9 °F 31.5 °F 21.0 °F 51% 30.05 in 10.0 mi NW 9.2 mph - N/A   Clear
8:52 PM 37.0 °F 28.9 °F 19.9 °F 50% 30.07 in 10.0 mi NW 12.7 mph - N/A   Clear
9:52 PM 34.0 °F 23.8 °F 19.9 °F 56% 30.09 in 10.0 mi NNW 16.1 mph - N/A   Clear
10:52 PM 32.0 °F 23.6 °F 17.1 °F 54% 30.09 in 10.0 mi NW 10.4 mph - N/A   Clear
11:52 PM 30.0 °F 23.2 °F 17.1 °F 59% 30.10 in 10.0 mi NW 6.9 mph - N/A   Clear